Location: Potomac
(46.8816°N, 113.5795°W)
Time: 01:25:50
(UTC+00:00)

CUTE 1.7 + AOD 2 - Pass Details

Date: 03 July 2022
Orbit: 589 x 608 km, 97.7° (Epoch: 17 August)

Event Time Altitude Azimuth Distance (km) Brightness Sun altitude
Rises 10:31:01 0° 27° (NNE) 2,851 ? -10.1°
Reaches altitude 10° 10:33:42 10° 44° (NE) 1,939 ? -9.8°
Maximum altitude 10:36:48 20° 92° (E) 1,397 ? -9.4°
Drops below altitude 10° 10:39:53 10° 140° (SE) 1,919 ? -9.1°
Sets 10:42:31 0° 157° (SSE) 2,812 ? -8.8°
